Tracking 29892 objects as of 21-Nov-2024
HD Live streaming from Space Station
objects crossing your sky now

DELTA 1 DEB

Track DELTA 1 DEB now!
10-day predictions


NORAD ID: 42558
Int'l Code: 1972-058JR
Perigee: 655.6 km
Apogee: 712.7 km
Inclination: 97.8 °
Period: 98.3 minutes
Semi major axis: 7055 km
RCS: Unknown
Launch date: July 23, 1972
Source: United States (US)
Launch site: AIR FORCE WESTERN TEST RANGE (AFWTR)

Note: This is SATELLITE DEBRIS
Your satellite tracking list
Your tracking list is empty




NASA's NSSDC Master Catalog

Two Line Element Set (TLE):
1 42558U 72058JR  24323.89830865  .00002511  00000-0  47138-3 0  9992
2 42558  97.8135 303.1814 0040422  57.8654 302.6463 14.65016962586177
Source of the keplerian elements: AFSPC